Location: Mercogliano
(40.9167°N, 14.7333°E)
Time: 05:07:14
(UTC+00:00)

COSMO-SKYMED 1 - Pass Details

Date: 18 September 2020
Orbit: 621 x 623 km, 97.9° (Epoch: 25 October)

Event Time Altitude Azimuth Distance (km) Brightness Sun altitude
Rises 17:32:58 0° 6° (N) 2,912 6.0 -6.2°
Reaches altitude 10° 17:35:14 10° 1° (N) 2,001 5.3 -6.6°
Maximum altitude 17:39:24 47° 287° (WNW) 829 3.8 -7.4°
Drops below altitude 10° 17:43:32 10° 214° (SW) 1,985 5.5 -8.2°
Sets 17:45:46 0° 209° (SSW) 2,887 6.3 -8.6°
